Location: Phoenix
(33.4480°N, 112.0730°W)
Time: 15:29:37
(UTC-07:00)

Daily predictions for brighter satellites

Satellite Brightness Start Highest point End
(mag) Time Altitude Azimuth Time Altitude Azimuth Time Altitude Azimuth
Cosmos 1975 Rocket 3.3 19:30:02 10° N 19:34:23 49° E 19:38:40 10° SSE
SeaSat 1 3.0 19:32:40 10° NE 19:37:13 36° ESE 19:41:43 10° S
Lacrosse 5 3.0 19:33:37 10° S 19:37:27 22° ESE 19:41:19 10° ENE
Cosmos 1697 Rocket 4.3 19:33:29 10° SW 19:38:44 41° WNW 19:44:02 10° N
Okean 3 4.2 19:35:17 10° NNW 19:39:28 58° W 19:43:41 10° S
Cosmos 44 4.2 19:35:42 10° N 19:39:34 28° NE 19:43:33 10° ESE
DELTA 2 R/B (1) 4.0 19:37:32 10° WNW 19:43:04 58° NNE 19:48:36 10° E
Spot 2 Rocket 4.1 19:39:19 10° SE 19:44:01 39° ENE 19:48:44 10° N
H-2A R/B 2.9 19:41:45 10° S 19:45:34 79° W 19:49:21 10° NNW
Cosmos 1140 Rocket 4.4 19:41:39 10° N 19:46:15 30° ENE 19:50:49 10° SE
NOSS 2-3 (C) 4.3 19:42:44 10° S 19:46:50 34° ESE 19:51:18 10° NE
Atlas Centaur 2 3.0 19:42:44 10° W 19:51:08 72° S 19:58:01 12° E
ALOS 4.0 19:48:31 10° SSW 19:52:47 35° W 19:57:04 10° NNW
Cosmos 2026 Rocket 4.1 19:46:30 10° S 19:52:48 87° E 19:59:13 10° N
Cosmos 1954 Rocket 4.4 19:50:55 10° N 19:56:00 45° ENE 20:01:02 10° SE
Cosmos 1812 3.6 19:55:02 10° NNW 19:58:48 51° W 20:02:32 10° S
Cosmos 2227 4.4 19:56:08 10° N 20:01:39 53° ENE 20:06:45 12° SE
CZ-4C R/B 3.7 19:54:23 10° NW 20:01:41 56° WSW 20:09:31 10° S
USA 186 2.0 19:59:56 10° SSE 20:03:10 54° ENE 20:06:29 10° N
Cosmos 1655 Rocket 4.0 19:57:14 10° S 20:03:28 80° E 20:09:48 10° N
Skynet4D Del rocket 4.4 19:58:24 10° WSW 20:05:14 48° S 20:09:52 17° ESE
GPS 2-05 Rocket1 3.2 20:02:27 10° W 20:05:47 57° N 20:08:18 16° ENE
Cosmos 1602 3.6 20:03:13 10° S 20:07:02 71° E 20:10:52 10° N
Okean 2 Rocket 3.9 20:04:53 10° SSW 20:09:16 55° W 20:13:42 10° N
Envisat 3.1 20:08:04 10° SSE 20:13:02 59° ENE 20:18:01 10° N
Meteor 1-11 Rocket 3.8 20:08:59 10° S 20:14:45 62° E 20:20:27 10° NNE
OAO 1 Rocket 4.4 20:13:39 10° WSW 20:18:58 70° SSE 20:23:02 17° E
ATLAS 3B R/B 4.4 20:18:09 10° N 20:21:57 15° NE 20:25:20 11° ENE
NOSS 2-3 (D) 3.7 20:21:55 10° SSW 20:26:27 84° ESE 20:31:33 10° NNE
USA 267 3.9 20:20:11 10° SSE 20:26:31 52° SW 20:32:54 10° NW
Resurs 1-3 4.0 20:22:12 10° S 20:26:33 65° WSW 20:30:55 10° NNW
Cosmos 2322 Rocket 2.3 20:26:18 10° SSW 20:32:00 79° WNW 20:37:43 10° NNE
Delta 2 Rocket 3.4 20:28:49 10° WSW 20:32:51 61° SSE 20:34:49 31° E
Cosmos 1939 Rocket 2.7 20:32:05 28° SSE 20:34:03 69° ENE 20:37:59 10° N
Cosmos 2263 Rocket 2.9 20:30:28 10° N 20:35:42 37° ENE 20:37:35 29° ESE
Cosmos 44 Rocket 3.5 20:33:36 10° NW 20:38:19 65° WSW 20:41:14 23° SSE
Cosmos 1536 2.7 20:36:47 15° S 20:40:09 81° E 20:44:14 10° N
Cosmos 1110 Rocket 4.3 20:38:45 28° SSE 20:40:51 41° ESE 20:45:41 10° NNE
Intelsat 5-1 Rocket 4.4 20:17:37 10° WSW 20:41:11 51° S 20:45:59 28° ESE
SL-16 R/B 2.7 20:37:12 10° SSW 20:42:48 63° WNW 20:48:25 10° NNE
YAOGAN 6 2.5 20:43:12 57° ESE 20:43:33 61° ENE 20:47:03 10° N
Lacrosse 5 rocket 1.3 20:42:38 10° NW 20:46:21 68° SW 20:47:14 48° S
Meteor 1-19 Rocket 4.5 20:44:44 10° NNW 20:50:35 72° W 20:55:21 15° S
Cosmos 2322 3.9 20:50:29 35° SSE 20:52:08 45° ESE 20:57:30 10° NE
ATLAS 2AS CENTAUR R/B 2.9 20:44:51 10° SSW 20:52:22 89° ESE 21:00:29 10° NNE
Okean 1 Rocket 2.9 20:52:34 39° S 20:54:07 78° E 20:58:29 10° N
Cosmos 1850 Rocket 3.9 20:49:02 10° NNW 20:54:22 74° ENE 20:56:04 44° SSE
Cosmos 1331 Rocket 4.0 20:54:54 46° SE 20:55:47 51° ESE 21:00:50 10° NNE
Tiangong 1 3.3 20:55:48 10° NNW 20:57:21 16° N 20:57:21 16° N
Helios 1B rocket 2.4 20:53:46 10° N 20:57:53 83° WNW 20:59:43 32° SSW
Resurs 01 Rocket 3.7 20:54:18 10° SSW 20:57:57 25° W 21:01:38 10° NW
Cosmos 1300 Rocket 4.1 20:54:37 10° SSW 20:58:50 56° W 21:03:05 10° N
COSMOS 2428 4.5 21:04:15 17° ENE 21:04:15 17° ENE 21:05:50 10° NE
Okean 1-7 Rocket 4.3 21:00:29 10° N 21:04:01 40° NE 21:04:01 40° NE
Cosmos 2360 Rocket 2.0 21:00:20 10° SSW 21:05:57 77° ESE 21:11:35 10° NNE
Cosmos 1607 4.2 21:03:06 10° NNW 21:09:27 55° ENE 21:10:47 47° E
Cosmos 2266 Rocket 4.2 21:04:26 10° SSW 21:10:26 65° W 21:16:25 10° N
Cosmos 1025 Rocket 3.6 21:06:37 10° N 21:09:50 43° NE 21:09:50 43° NE
Meteor 1-5 Rocket 4.3 21:06:30 12° SSW 21:11:27 69° W 21:16:45 10° N
SPOT 5 4.0 21:14:37 31° NE 21:14:37 31° NE 21:17:54 10° N
Cosmos 2315 Rocket 3.9 21:09:17 10° N 21:15:32 68° E 21:16:44 55° SE
Nadezhda 2 Rocket 4.3 21:15:45 41° S 21:18:04 82° E 21:24:17 10° N
Lacrosse 5 2.9 21:15:15 10° WSW 21:20:07 46° NW 21:25:00 10° NNE
NOAA 11 4.1 21:23:01 67° S 21:23:50 88° WSW 21:29:22 10° NNW
USA 245 4.5 21:25:07 46° NE 21:25:07 46° NE 21:28:50 10° N
Meteor 2-4 Rocket 4.5 21:19:54 10° NNW 21:25:14 48° W 21:28:02 27° SSW
DELTA 2 R/B (1) 3.9 21:24:06 10° WNW 21:29:29 54° SSW 21:29:29 54° SSW
Helios 1A 4.4 21:34:58 32° WSW 21:35:20 33° W 21:39:11 10° NNW
Atlas Centaur 2 2.8 21:32:59 10° W 21:40:38 57° SSW 21:40:38 57° SSW
ERS-1 Rocket 3.4 21:46:25 56° W 21:46:25 56° W 21:51:06 10° NNW
MetOp-A 4.4 21:47:50 65° W 21:47:50 65° W 21:52:58 10° NNW
Cosmos 1932 4.4 21:42:54 10° NNW 21:49:21 86° WSW 21:49:21 86° WSW
H-2A R/B 2.9 21:51:08 42° N 21:51:08 42° N 21:54:31 10° N
Meteosat 1 Rocket2 4.5 21:45:48 10° WSW 21:50:53 55° SSW 21:50:53 55° SSW
USA 238 DEB 4.0 21:47:04 10° NNW 21:53:57 54° NE 21:53:57 54° NE
USA 238 4.0 21:47:11 10° NNW 21:54:02 53° NE 21:54:02 53° NE
Terra 3.9 22:07:58 20° NNE 22:07:58 20° NNE 22:09:33 10° N
ARGOS 4.0 22:08:49 46° WNW 22:08:49 46° WNW 22:13:08 10° NNW
ATLAS 3B R/B 2.8 22:06:58 10° NNW 22:12:35 65° NNW 22:12:35 65° NNW
Cosmos 2278 Rocket 4.3 22:14:58 10° N 22:17:05 18° NNE 22:17:05 18° NNE
Cosmos 2263 Rocket 3.9 22:14:50 10° NW 22:19:18 25° W 22:19:18 25° W
Cosmos 1844 Rocket 4.0 22:22:03 10° NNW 22:25:19 35° N 22:25:19 35° N
Cosmos 2219 Rocket 4.1 22:39:32 23° N 22:39:32 23° N 22:41:36 10° NNE
COSMOS 2428 4.3 22:46:11 32° NW 22:46:11 32° NW 22:50:18 10° N
Cosmos 2333 Rocket 4.3 23:02:15 21° N 23:02:15 21° N 23:04:05 10° NNE
CENTAUR R/B 4.3 22:58:12 10° N 23:04:37 30° NE 23:04:37 30° NE
